FW7721 Weather Reports


time (UTC)temp
F
wind
direction
speed
knots
gust
knots
rain 1hr
in
rain 24hr
in
rain mn
in
humidity
%
barometer
mb
20260508151553 53 64 4.3 7.8 0.00 1.12 0.00 81 1001.3
20260508144551 53 59 4.3 8.7 0.00 1.12 0.00 82 1001.4
20260508143106 54 58 4.3 8.7 0.00 1.12 0.00 80 1001.5
20260508141550 54 98 4.3 8.7 0.00 1.12 0.00 82 1001.5
20260508134548 54 82 1.7 5.2 0.00 1.12 0.00 81 1001.6
20260508133054 54 68 0.0 3.5 0.00 1.12 0.00 82 1001.6
20260508131548 54 283 0.9 4.3 0.00 1.12 0.00 80 1001.6
20260508130046 54 58 1.7 5.2 0.00 1.12 0.00 81 1001.6
20260508124545 54 15 1.7 3.5 0.00 1.12 0.00 81 1001.6
20260508123045 54 35 2.6 7.0 0.00 1.12 0.00 80 1001.8
20260508121543 54 30 2.6 4.3 0.00 1.12 0.00 83 1001.6
20260508120043 53 30 0.9 7.8 0.00 1.12 0.00 85 1001.5
20260508114536 53 349 2.6 5.2 0.00 1.15 0.00 87 1001.8
20260508113034 52 348 1.7 7.8 0.00 1.15 0.00 91 1002.0
20260508111532 50 338 2.6 5.2 0.00 1.15 0.00 96 1002.0
20260508110029 49 360 1.7 4.3 0.00 1.15 0.00 99 1002.0
20260508104528 48 302 2.6 4.3 0.00 1.15 0.00 99 1001.9
20260508103025 46 333 1.7 5.2 0.00 1.15 0.00 99 1001.8
20260508101524 45 5 0.0 0.0 0.00 1.15 0.00 99 1002.0
20260508100026 45 322 0.0 0.0 0.00 1.15 0.00 99 1002.2
20260508094521 45 340 0.0 0.0 0.00 1.15 0.00 99 1002.1
20260508093021 45 5 0.0 0.0 0.00 1.15 0.00 99 1002.1
20260508091519 45 314 0.0 2.6 0.00 1.15 0.00 99 1002.0
20260508090017 46 18 0.0 5.2 0.00 1.15 0.00 99 1002.2
20260508084514 46 333 2.6 4.3 0.00 1.15 0.00 99 1001.7
20260508083016 47 350 2.6 7.0 0.00 1.15 0.00 99 1001.7
20260508081512 47 302 0.9 4.3 0.00 1.15 0.00 99 1002.1
20260508080025 48 342 0.9 8.7 0.00 1.15 0.00 99 1001.8
20260508074508 48 19 0.9 4.3 0.00 1.15 0.00 100 1001.5
20260508073006 48 347 1.7 7.0 0.00 1.15 0.00 100 1001.7
20260508071505 48 294 1.7 4.3 0.00 1.15 0.00 100 1001.2
20260508070009 48 327 2.6 4.3 0.00 1.15 0.00 99 1001.5
20260508064510 48 14 1.7 7.0 0.00 1.15 0.00 100 1001.6
20260508063101 48 355 0.0 3.5 0.00 1.15 0.00 99 1001.6
20260508061559 47 313 0.0 1.7 0.00 1.15 0.00 99 1001.6
20260508060059 48 298 0.0 0.0 0.00 1.15 0.00 99 1001.6
20260508054600 48 298 0.0 0.0 0.00 1.15 0.00 99 1001.6
20260508053101 49 298 0.0 0.0 0.00 1.15 0.00 99 1001.6
20260508051605 49 290 0.0 3.5 0.00 1.15 0.00 99 1001.6
20260508050103 49 314 0.9 5.2 0.00 1.15 0.00 99 1001.6
20260508044554 49 339 2.6 4.3 0.00 1.15 0.00 99 1001.5
20260508043047 50 351 2.6 5.2 0.00 1.15 0.00 99 1001.6
20260508041545 50 339 0.9 5.2 0.00 1.15 0.00 100 1001.5
20260508040052 50 342 0.0 3.5 0.00 1.15 0.00 100 1001.9
20260508034545 51 23 0.9 4.3 0.00 1.15 0.00 100 1001.9
20260508033043 51 355 0.0 0.0 0.00 1.15 0.00 100 1001.9
20260508031540 51 355 0.0 1.7 0.00 1.15 0.00 100 1001.9
20260508030038 51 355 0.0 1.7 0.00 1.15 0.00 100 1001.9
20260508024539 51 200 0.0 0.0 0.00 1.15 1.15 100 1002.0
20260508023036 51 262 0.9 4.3 0.00 1.15 1.15 100 1002.1
20260508021638 51 318 0.0 0.0 0.00 1.15 1.15 100 1002.3
20260508020035 51 250 0.0 0.0 0.00 1.15 1.15 100 1002.2
20260508014536 52 225 0.0 0.0 0.00 1.15 1.15 100 1002.3
20260508013036 51 225 0.0 0.0 0.00 1.15 1.15 100 1002.2
20260508011536 51 225 0.0 0.0 0.00 1.15 1.15 99 1002.1
20260508010033 51 225 0.0 0.0 0.00 1.15 1.15 99 1002.0
20260508004534 51 225 0.0 0.0 0.00 1.15 1.15 99 1002.0
20260508003033 51 225 0.0 0.0 0.00 1.15 1.15 99 1001.8
20260508001533 52 225 0.0 0.0 0.00 1.15 1.15 99 1002.0
20260508000033 52 232 0.0 0.0 0.00 1.15 1.15 99 1001.8
20260507234544 52 232 0.0 0.0 0.00 1.15 1.15 99 1001.7
20260507233033 52 232 0.0 0.0 0.00 1.15 1.15 99 1001.8
20260507231532 52 232 0.0 0.0 0.00 1.15 1.15 99 1001.9
20260507230031 52 212 0.0 0.0 0.00 1.15 1.15 99 1002.0
20260507224530 52 216 1.7 5.2 0.00 1.15 1.15 99 1002.1
20260507223030 51 229 2.6 7.0 0.00 1.15 1.15 99 1002.1
20260507221533 51 217 6.1 13.0 0.00 1.15 1.15 99 1002.2
20260507220036 52 217 6.1 10.4 0.00 1.15 1.15 99 1002.2
20260507214527 52 261 5.2 7.8 0.00 1.15 1.15 99 1001.8
20260507213031 52 248 6.1 13.9 0.00 1.15 1.15 99 1001.7
20260507211533 52 216 7.8 14.8 0.00 1.15 1.15 98 1002.0
20260507210030 53 207 7.8 16.5 0.01 1.15 1.15 99 1002.4
20260507204524 53 230 7.8 13.0 0.02 1.15 1.15 99 1002.1
20260507203026 52 197 6.1 10.4 0.03 1.15 1.15 99 1001.7
20260507201523 52 178 7.0 14.8 0.06 1.15 1.15 99 1001.3
20260507200022 52 152 4.3 12.2 0.09 1.14 1.14 99 1001.7
20260507194530 52 185 4.3 9.6 0.13 1.13 1.13 99 1002.7
20260507193016 52 226 6.1 12.2 0.23 1.12 1.12 99 1003.1
20260507191514 51 196 4.3 7.0 0.31 1.10 1.10 99 1003.3
20260507190019 51 167 3.5 7.0 0.34 1.05 1.05 99 1003.7
20260507184509 51 202 2.6 5.2 0.39 1.00 1.00 98 1004.1
20260507183011 51 198 3.5 9.6 0.44 0.89 0.89 98 1004.4
20260507181508 51 175 6.1 13.9 0.56 0.79 0.79 98 1004.7
20260507180006 52 227 5.2 11.3 0.54 0.70 0.70 98 1005.0
20260507174510 52 198 5.2 15.6 0.49 0.61 0.61 98 1004.9
20260507173016 52 179 9.6 18.2 0.35 0.45 0.45 98 1005.1
20260507171503 53 180 9.6 19.1 0.15 0.22 0.22 98 1004.6
20260507170005 54 148 9.6 20.0 0.13 0.16 0.16 98 1004.1
20260507164502 53 183 7.0 19.1 0.09 0.12 0.12 98 1004.5
20260507163100 53 205 11.3 17.4 0.08 0.11 0.11 98 1004.8
20260507161600 54 215 7.0 16.5 0.04 0.07 0.07 98 1005.1
20260507160054 54 179 7.0 19.1 0.01 0.04 0.04 97 1005.8
20260507154557 55 158 8.7 18.2 0.00 0.03 0.03 96 1006.1
20260507153055 54 171 8.7 19.1 0.00 0.03 0.03 96 1006.5